Weather History for Middletown, OH

Change the Weather History Date:

Saturday, August 3, 2013

  Actual Average (KDAY) Record (KDAY)
Temperature  
Mean Temperature 73 °F 74 °F  
Max Temperature 79 °F 83 °F 100 °F (1964)
Min Temperature 67 °F 64 °F 40 °F (1965)
Degree Days  
Heating Degree Days 0 0  
Month to date heating degree days 0  
Since 1 June heating degree days 22  
Since 1 July heating degree days 0  
Cooling Degree Days 8 9  
Month to date cooling degree days 27  
Year to date cooling degree days 566  
Since 1 June cooling degree days 496  
Growing Degree Days 23 (Base 50)    
Moisture  
Dew Point 69 °F    
Average Humidity 92    
Maximum Humidity 100    
Minimum Humidity 65    
Precipitation  
Precipitation 0.00 in 0.10 in 2.13 in (1978)
Month to date precipitation 0.30  
Year to date precipitation 25.62  
Snow  
Snow 0.00 in 0.00 in 0.00 in ()
Month to date snowfall 0.0  
Since 1 June snowfall 0.0  
Since 1 July snowfall 0.0  
Snow Depth -    
Sea Level Pressure  
Sea Level Pressure 30.01 in    
Wind  
Wind Speed 3 mph (WNW)    
Max Wind Speed 9 mph    
Max Gust Speed -    
Visibility 10 miles    
Events Rain    
T = Trace of Precipitation, MM = Missing Value Source: NWS Daily Summary

Daily Weather History Graph

Daily Weather History Graph

Search for Another Location

Airport:

Trip Planner

Search our weather history database for the weather conditions in past years. The results will help you decide how hot, cold, wet, or windy it might be!

Date:

Astronomy

Aug. 03, 2013 Rise Set
Actual Time 6:39 AM EDT 8:47 PM EDT
Civil Twilight 6:09 AM EDT 9:17 PM EDT
Nautical Twilight 5:32 AM EDT 9:53 PM EDT
Astronomical Twilight 4:52 AM EDT 10:33 PM EDT
Moon 3:47 AM EDT (8/3) 6:29 PM EDT (8/3)
Length of Visible Light 15h 08m
Length of Day
14h 08m
Waning Crescent, 9% of the Moon is Illuminated
Aug 3
Waning Crescent
Aug 6
New
Aug 14
First Quarter
Aug 20
Full
Aug 28
Last Quarter

Hourly Weather History & Observations

Time (EDT) Temp. Dew Point Humidity Pressure Visibility Wind Dir Wind Speed Gust Speed Precip Events Conditions
12:15 AM 72.7 °F 71.2 °F 95% 29.99 in 10.0 mi West 3.5 mph - N/A   Overcast
12:35 AM 72.7 °F 71.6 °F 96% 30.00 in 10.0 mi Calm Calm - N/A   Overcast
12:55 AM 72.7 °F 70.7 °F 93% 29.99 in 10.0 mi Calm Calm - N/A   Overcast
1:15 AM 72.7 °F 71.8 °F 97% 30.00 in 10.0 mi WSW 4.6 mph - N/A   Overcast
1:35 AM 72.7 °F 72.1 °F 98% 30.00 in 10.0 mi Calm Calm - N/A   Overcast
1:55 AM 72.7 °F 72.1 °F 98% 30.00 in 10.0 mi WSW 4.6 mph - N/A Rain Light Rain
2:15 AM 70.2 °F 70.2 °F 100% 30.00 in 10.0 mi Calm Calm - N/A   Overcast
2:35 AM 70.3 °F 70.0 °F 99% 30.00 in 7.0 mi SW 8.1 mph - N/A Rain Rain
2:55 AM 70.2 °F 68.9 °F 96% 29.99 in 10.0 mi WSW 3.5 mph - N/A   Mostly Cloudy
3:15 AM 69.1 °F 69.1 °F 100% 29.98 in 10.0 mi Calm Calm - N/A   Overcast
3:35 AM 67.6 °F 67.6 °F 100% 29.98 in 10.0 mi Calm Calm - N/A Rain Light Rain
3:55 AM 67.6 °F 67.6 °F 100% 29.98 in 7.0 mi Calm Calm - N/A Rain Light Rain
4:15 AM 67.6 °F 67.6 °F 100% 29.99 in 5.0 mi WSW 3.5 mph - N/A Rain Rain
4:35 AM 67.6 °F 67.6 °F 100% 29.99 in 7.0 mi West 5.8 mph - N/A Rain Light Rain
4:55 AM 68.9 °F 68.4 °F 98% 30.00 in 10.0 mi West 4.6 mph - N/A Rain Rain
5:15 AM 67.6 °F 67.5 °F 99% 29.99 in 7.0 mi Calm Calm - N/A Rain Light Rain
5:35 AM 67.6 °F 67.6 °F 100% 30.00 in 10.0 mi WSW 3.5 mph - N/A Rain Rain
5:55 AM 67.6 °F 67.6 °F 100% 30.00 in 10.0 mi Calm Calm - N/A   Light Drizzle
6:15 AM 67.6 °F 67.6 °F 100% 30.00 in 10.0 mi SW 4.6 mph - N/A   Light Drizzle
6:35 AM 67.6 °F 67.6 °F 100% 29.99 in 10.0 mi SW 6.9 mph - N/A   Mostly Cloudy
6:55 AM 67.6 °F 67.6 °F 100% 29.99 in 7.0 mi SW 4.6 mph - N/A Rain Light Rain
7:15 AM 67.6 °F 67.6 °F 100% 30.00 in 7.0 mi SW 5.8 mph - N/A   Light Drizzle
7:35 AM 67.6 °F 67.6 °F 100% 30.00 in 7.0 mi SW 5.8 mph - N/A Rain Light Rain
7:55 AM 67.6 °F 67.6 °F 100% 29.99 in 7.0 mi SSW 4.6 mph - N/A   Overcast
8:15 AM 67.6 °F 67.6 °F 100% 30.00 in 10.0 mi SW 5.8 mph - N/A   Overcast
8:35 AM 67.6 °F 67.6 °F 100% 30.00 in 10.0 mi SW 4.6 mph - N/A Rain Light Rain
8:55 AM 67.6 °F 67.6 °F 100% 30.00 in 10.0 mi Calm Calm - N/A   Overcast
9:15 AM 67.6 °F 67.6 °F 100% 30.00 in 10.0 mi Calm Calm - N/A   Overcast
9:35 AM 67.8 °F 67.8 °F 100% 30.01 in 10.0 mi Calm Calm - N/A   Overcast
9:55 AM 69.6 °F 69.6 °F 100% 30.01 in 10.0 mi WSW 3.5 mph - N/A   Overcast
10:15 AM 70.2 °F 70.2 °F 100% 30.01 in 10.0 mi SW 4.6 mph - N/A   Overcast
10:35 AM 72.7 °F 72.3 °F 99% 30.00 in 10.0 mi Calm Calm - N/A   Overcast
10:55 AM 72.7 °F 71.6 °F 96% 30.00 in 10.0 mi WSW 6.9 mph - N/A   Overcast
11:15 AM 72.7 °F 71.6 °F 96% 30.00 in 10.0 mi West 3.5 mph - N/A   Overcast
11:35 AM 72.7 °F 71.4 °F 96% 30.00 in 10.0 mi WNW 3.5 mph - N/A   Overcast
11:55 AM 72.7 °F 71.1 °F 95% 30.01 in 10.0 mi NW 5.8 mph - N/A   Overcast
12:15 PM 72.7 °F 70.9 °F 94% 30.02 in 10.0 mi West 3.5 mph - N/A   Overcast
12:35 PM 72.7 °F 71.1 °F 95% 30.02 in 10.0 mi WNW 3.5 mph - N/A   Overcast
12:55 PM 72.7 °F 71.1 °F 95% 30.03 in 10.0 mi WNW 3.5 mph - N/A   Overcast
1:15 PM 72.7 °F 71.6 °F 96% 30.03 in 10.0 mi WSW 3.5 mph - N/A   Overcast
1:35 PM 72.7 °F 71.6 °F 96% 30.03 in 10.0 mi SW 3.5 mph - N/A   Overcast
1:55 PM 72.7 °F 70.3 °F 92% 30.03 in 10.0 mi West 3.5 mph - N/A   Overcast
2:15 PM 75.2 °F 72.0 °F 90% 30.02 in 10.0 mi WSW 4.6 mph - N/A   Overcast
2:35 PM 75.4 °F 71.2 °F 87% 30.02 in 10.0 mi WSW 6.9 mph - N/A   Scattered Clouds
2:55 PM 77.9 °F 72.7 °F 84% 30.01 in 10.0 mi West 4.6 mph - N/A   Scattered Clouds
3:15 PM 77.9 °F 71.1 °F 79% 30.01 in 10.0 mi West 3.5 mph - N/A   Scattered Clouds
3:35 PM 77.9 °F 71.1 °F 79% 30.01 in 10.0 mi WNW 4.6 mph - N/A   Scattered Clouds
3:55 PM 75.6 °F 69.8 °F 82% 30.01 in 10.0 mi NNW 4.6 mph - N/A   Overcast
4:15 PM 77.9 °F 70.7 °F 78% 30.01 in 10.0 mi NNW 5.8 mph - N/A   Overcast
4:35 PM 77.9 °F 70.9 °F 79% 30.01 in 10.0 mi NNW 6.9 mph - N/A   Overcast
4:55 PM 78.8 °F 69.4 °F 73% 30.01 in 10.0 mi NNW 5.8 mph - N/A   Overcast
5:15 PM 79.0 °F 67.8 °F 69% 30.01 in 10.0 mi NNW 6.9 mph - N/A   Mostly Cloudy
5:35 PM 79.0 °F 66.4 °F 65% 30.00 in 10.0 mi North 9.2 mph - N/A   Scattered Clouds
5:55 PM 79.0 °F 67.1 °F 67% 30.01 in 10.0 mi NNE 9.2 mph - N/A   Clear
6:15 PM 78.8 °F 66.6 °F 66% 30.01 in 10.0 mi North 4.6 mph - N/A   Clear
6:35 PM 77.9 °F 66.6 °F 68% 30.00 in 10.0 mi North 6.9 mph - N/A   Clear
6:55 PM 77.9 °F 66.9 °F 69% 30.00 in 10.0 mi North 5.8 mph - N/A   Clear
7:15 PM 77.9 °F 66.7 °F 68% 30.00 in 10.0 mi NNE 6.9 mph - N/A   Clear
7:35 PM 77.9 °F 68.2 °F 72% 30.00 in 10.0 mi North 3.5 mph - N/A   Clear
7:55 PM 75.2 °F 66.9 °F 75% 30.01 in 10.0 mi Calm Calm - N/A   Clear
8:15 PM 73.9 °F 70.0 °F 87% 30.01 in 10.0 mi Calm Calm - N/A   Clear
8:35 PM 72.7 °F 71.8 °F 97% 30.02 in 10.0 mi Calm Calm - N/A   Clear
8:55 PM 68.4 °F 68.2 °F 99% 30.02 in 10.0 mi Calm Calm - N/A   Clear
9:15 PM 67.6 °F 67.6 °F 100% 30.02 in 10.0 mi North 4.6 mph - N/A   Clear
9:35 PM 67.6 °F 66.9 °F 98% 30.02 in 10.0 mi NNW 5.8 mph - N/A   Clear
9:55 PM 67.6 °F 65.3 °F 92% 30.03 in 10.0 mi North 3.5 mph - N/A   Clear
10:15 PM 67.6 °F 65.5 °F 93% 30.03 in 10.0 mi Calm Calm - N/A   Clear
10:35 PM 67.6 °F 66.6 °F 96% 30.04 in 10.0 mi Calm Calm - N/A   Clear
10:55 PM 67.6 °F 67.3 °F 99% 30.05 in 10.0 mi Calm Calm - N/A   Scattered Clouds
11:15 PM 68.9 °F 64.9 °F 87% 30.05 in 10.0 mi NNW 5.8 mph - N/A   Scattered Clouds
11:35 PM 67.6 °F 64.8 °F 90% 30.05 in 10.0 mi NNW 6.9 mph - N/A   Clear
11:55 PM 67.6 °F 64.4 °F 89% 30.05 in 10.0 mi North 5.8 mph - N/A   Clear